KRP502 LBSF-LRTR

Flight info

Callsign KRP502
Flight time 0h 45m
Altitude 30000
Route OGOTA T228 UTEKA/N0350F200 L610 DONIV/N0348F190 N188 MAVIT
Aircraft A320/M-SDE3FGHIRWY/LB1

Departure

Time 2026-04-23 13:03
Airport Sofia Airport (LBSF)

Arrival

Time 2026-04-23 13:48
Airport Timișoara Traian Vuia International Airport (LRTR)
Time Latitude Longitude Altitude Speed Heading
2026-04-23 12:38 42.69028 23.41083 1750 ft 0 kts 162°
2026-04-23 12:56 42.69008 23.41092 1749 ft 9 kts 162°
2026-04-23 12:56 42.68983 23.41167 1747 ft 17 kts 59°
2026-04-23 12:56 42.69075 23.41211 1748 ft 16 kts 341°
2026-04-23 12:56 42.69183 23.41160 1744 ft 17 kts 341°
2026-04-23 12:57 42.69304 23.41168 1750 ft 18 kts 12°
2026-04-23 12:57 42.69433 23.41206 1748 ft 19 kts 12°
2026-04-23 12:57 42.69483 23.41322 1747 ft 15 kts 93°
2026-04-23 12:57 42.69476 23.41455 1750 ft 13 kts 95°
2026-04-23 12:58 42.69466 23.41600 1750 ft 19 kts 95°
2026-04-23 12:58 42.69455 23.41792 1750 ft 20 kts 94°
2026-04-23 12:58 42.69444 23.41980 1749 ft 19 kts 94°
2026-04-23 12:58 42.69434 23.42152 1751 ft 17 kts 95°
2026-04-23 12:59 42.69425 23.42304 1751 ft 15 kts 94°
2026-04-23 12:59 42.69414 23.42472 1751 ft 22 kts 95°
2026-04-23 12:59 42.69403 23.42672 1747 ft 20 kts 94°
2026-04-23 12:59 42.69391 23.42862 1747 ft 23 kts 94°
2026-04-23 13:00 42.69380 23.43076 1752 ft 22 kts 94°
2026-04-23 13:00 42.69367 23.43271 1752 ft 20 kts 95°
2026-04-23 13:00 42.69356 23.43447 1752 ft 18 kts 95°
2026-04-23 13:00 42.69346 23.43612 1752 ft 19 kts 94°
2026-04-23 13:01 42.69336 23.43776 1793 ft 16 kts 95°
2026-04-23 13:01 42.69342 23.43917 1803 ft 14 kts 57°
2026-04-23 13:01 42.69434 23.43951 1803 ft 15 kts
2026-04-23 13:01 42.69516 23.43883 1810 ft 20 kts 285°
2026-04-23 13:02 42.69540 23.43539 1752 ft 65 kts 274°
2026-04-23 13:02 42.69594 23.42629 1752 ft 126 kts 274°
2026-04-23 13:02 42.69676 23.41206 1777 ft 171 kts 275°
2026-04-23 13:02 42.69797 23.39553 2330 ft 180 kts 284°
2026-04-23 13:03 42.70409 23.38077 2924 ft 186 kts 322°
2026-04-23 13:03 42.71664 23.37438 3343 ft 205 kts 352°
2026-04-23 13:03 42.73146 23.37219 3784 ft 225 kts 351°
2026-04-23 13:03 42.74783 23.36937 4233 ft 248 kts 353°
2026-04-23 13:04 42.76525 23.36741 5070 ft 255 kts 355°
2026-04-23 13:04 42.78308 23.36586 5975 ft 258 kts 355°
2026-04-23 13:04 42.80105 23.36440 6883 ft 260 kts 355°
2026-04-23 13:04 42.81920 23.36290 7782 ft 262 kts 354°
2026-04-23 13:05 42.83757 23.36136 8619 ft 267 kts 354°
2026-04-23 13:05 42.85613 23.35976 9465 ft 269 kts 355°
2026-04-23 13:05 42.87494 23.35805 10254 ft 274 kts 355°
2026-04-23 13:05 42.89465 23.35623 10559 ft 295 kts 355°
2026-04-23 13:06 42.93743 23.35229 11674 ft 315 kts 356°
2026-04-23 13:06 42.95949 23.35022 12388 ft 321 kts 356°
2026-04-23 13:06 42.97423 23.34882 12936 ft 320 kts 356°
2026-04-23 13:07 43.00423 23.34605 13972 ft 324 kts 357°
2026-04-23 13:07 43.02658 23.34401 14573 ft 329 kts 357°
2026-04-23 13:07 43.04954 23.34192 15212 ft 333 kts 357°
2026-04-23 13:07 43.06523 23.34050 15649 ft 335 kts 358°
2026-04-23 13:08 43.09628 23.33771 16518 ft 340 kts 358°
2026-04-23 13:08 43.11227 23.33623 16965 ft 342 kts 358°
2026-04-23 13:08 43.13614 23.33399 17628 ft 345 kts 358°
2026-04-23 13:08 43.16019 23.33172 18285 ft 348 kts 359°
2026-04-23 13:09 43.18438 23.32865 18849 ft 353 kts 353°
2026-04-23 13:09 43.20824 23.31942 19402 ft 360 kts 341°
2026-04-23 13:09 43.23049 23.30297 19957 ft 369 kts 329°
2026-04-23 13:09 43.25019 23.27977 20493 ft 377 kts 321°
2026-04-23 13:10 43.26914 23.25460 20996 ft 381 kts 321°
2026-04-23 13:10 43.28828 23.22917 21517 ft 385 kts 321°
2026-04-23 13:10 43.30759 23.20349 22042 ft 389 kts 321°
2026-04-23 13:10 43.32709 23.17753 22554 ft 392 kts 321°
2026-04-23 13:11 43.34684 23.15132 23055 ft 396 kts 322°
2026-04-23 13:11 43.36673 23.12496 23565 ft 399 kts 322°
2026-04-23 13:11 43.38686 23.09833 23980 ft 403 kts 322°
2026-04-23 13:11 43.40710 23.07154 24401 ft 405 kts 322°
2026-04-23 13:12 43.42745 23.04454 24819 ft 408 kts 322°
2026-04-23 13:12 43.44790 23.01735 25215 ft 410 kts 322°
2026-04-23 13:12 43.46845 22.98997 25611 ft 412 kts 322°
2026-04-23 13:12 43.48911 22.96241 26005 ft 415 kts 322°
2026-04-23 13:13 43.50992 22.93463 26383 ft 418 kts 322°
2026-04-23 13:13 43.53084 22.90671 26766 ft 420 kts 322°
2026-04-23 13:13 43.55186 22.87861 27143 ft 422 kts 322°
2026-04-23 13:13 43.57301 22.85035 27507 ft 425 kts 322°
2026-04-23 13:14 43.59434 22.82181 27888 ft 428 kts 322°
2026-04-23 13:14 43.61570 22.79313 28234 ft 430 kts 322°
2026-04-23 13:14 43.63717 22.76431 28593 ft 432 kts 322°
2026-04-23 13:14 43.65873 22.73535 28946 ft 434 kts 322°
2026-04-23 13:15 43.68038 22.70624 29351 ft 434 kts 322°
2026-04-23 13:15 43.70207 22.67702 29697 ft 436 kts 322°
2026-04-23 13:15 43.72382 22.64771 29968 ft 438 kts 322°
2026-04-23 13:15 43.74541 22.61850 30027 ft 427 kts 322°
2026-04-23 13:16 43.76622 22.59023 30025 ft 414 kts 322°
2026-04-23 13:16 43.80664 22.53548 30013 ft 407 kts 322°
2026-04-23 13:17 43.84719 22.48068 30029 ft 407 kts 322°
2026-04-23 13:17 43.88761 22.42585 30029 ft 407 kts 322°
2026-04-23 13:18 43.92790 22.37068 30031 ft 407 kts 321°
2026-04-23 13:18 43.96731 22.31423 30031 ft 407 kts 320°
2026-04-23 13:19 44.00646 22.25749 30033 ft 406 kts 320°
2026-04-23 13:19 44.04556 22.20090 30029 ft 406 kts 320°
2026-04-23 13:20 44.08474 22.14446 30030 ft 405 kts 321°
2026-04-23 13:20 44.12382 22.08811 30024 ft 405 kts 320°
2026-04-23 13:21 44.16288 22.03164 30006 ft 404 kts 320°
2026-04-23 13:21 44.20182 21.97499 30010 ft 405 kts 320°
2026-04-23 13:22 44.24083 21.91831 30015 ft 405 kts 320°
2026-04-23 13:22 44.27986 21.86161 30023 ft 405 kts 320°
2026-04-23 13:23 44.31882 21.80486 30031 ft 405 kts 320°
2026-04-23 13:23 44.35760 21.74822 29757 ft 398 kts 320°
2026-04-23 13:23 44.37651 21.72049 29469 ft 391 kts 320°
2026-04-23 13:24 44.39519 21.69309 29185 ft 388 kts 320°
2026-04-23 13:24 44.41377 21.66576 28904 ft 386 kts 320°
2026-04-23 13:24 44.43224 21.63859 28626 ft 385 kts 320°
2026-04-23 13:24 44.45041 21.61189 28363 ft 383 kts 320°
2026-04-23 13:25 44.46875 21.58494 28089 ft 382 kts 320°
2026-04-23 13:25 44.48702 21.55810 27821 ft 380 kts 320°
2026-04-23 13:25 44.50525 21.53132 27551 ft 378 kts 320°
2026-04-23 13:25 44.52332 21.50472 27270 ft 376 kts 319°
2026-04-23 13:26 44.54130 21.47817 27009 ft 375 kts 319°
2026-04-23 13:26 44.55917 21.45167 26749 ft 373 kts 319°
2026-04-23 13:26 44.57694 21.42524 26495 ft 372 kts 319°
2026-04-23 13:26 44.59471 21.39890 26257 ft 371 kts 319°
2026-04-23 13:27 44.61243 21.37270 25994 ft 369 kts 319°
2026-04-23 13:27 44.63007 21.34657 25739 ft 368 kts 319°
2026-04-23 13:27 44.64763 21.32046 25495 ft 367 kts 319°
2026-04-23 13:27 44.66516 21.29439 25252 ft 366 kts 319°
2026-04-23 13:28 44.68258 21.26846 25011 ft 365 kts 319°
2026-04-23 13:28 44.69999 21.24252 24754 ft 364 kts 319°
2026-04-23 13:28 44.71745 21.21708 24474 ft 357 kts 324°
2026-04-23 13:28 44.73730 21.19729 24031 ft 345 kts 339°
2026-04-23 13:29 44.75934 21.18548 23592 ft 335 kts 352°
2026-04-23 13:29 44.78211 21.18155 23108 ft 326 kts
2026-04-23 13:29 44.80431 21.18507 22689 ft 317 kts 15°
2026-04-23 13:29 44.82584 21.19129 22269 ft 314 kts 15°
2026-04-23 13:30 44.84718 21.19734 21870 ft 312 kts 14°
2026-04-23 13:30 44.86836 21.20323 21471 ft 309 kts 14°
2026-04-23 13:30 44.88942 21.20903 21076 ft 307 kts 14°
2026-04-23 13:30 44.91030 21.21482 20682 ft 305 kts 14°
2026-04-23 13:31 44.93105 21.22067 20291 ft 303 kts 14°
2026-04-23 13:31 44.95170 21.22654 19903 ft 303 kts 14°
2026-04-23 13:31 44.97233 21.23237 19511 ft 301 kts 14°
2026-04-23 13:31 44.99284 21.23817 19133 ft 300 kts 14°
2026-04-23 13:32 45.01328 21.24394 18738 ft 299 kts 14°
2026-04-23 13:32 45.03368 21.24970 18352 ft 299 kts 14°
2026-04-23 13:32 45.05402 21.25543 17942 ft 297 kts 14°
2026-04-23 13:32 45.07422 21.26112 17559 ft 295 kts 14°
2026-04-23 13:33 45.09432 21.26682 17181 ft 293 kts 13°
2026-04-23 13:33 45.11428 21.27248 16818 ft 292 kts 13°
2026-04-23 13:33 45.13411 21.27810 16452 ft 290 kts 13°
2026-04-23 13:33 45.15384 21.28372 16092 ft 289 kts 13°
2026-04-23 13:34 45.17350 21.28930 15734 ft 287 kts 12°
2026-04-23 13:34 45.19305 21.29484 15374 ft 286 kts 12°
2026-04-23 13:34 45.21256 21.30043 14999 ft 286 kts 12°
2026-04-23 13:34 45.23205 21.30610 14623 ft 286 kts 14°
2026-04-23 13:35 45.25069 21.31610 14251 ft 287 kts 27°
2026-04-23 13:35 45.26834 21.32937 13876 ft 287 kts 26°
2026-04-23 13:35 45.28603 21.34260 13466 ft 287 kts 26°
2026-04-23 13:35 45.30369 21.35579 13081 ft 287 kts 26°
2026-04-23 13:36 45.32132 21.36895 12702 ft 286 kts 26°
2026-04-23 13:36 45.33889 21.38206 12326 ft 285 kts 26°
2026-04-23 13:36 45.35641 21.39514 11943 ft 284 kts 26°
2026-04-23 13:36 45.37393 21.40824 11559 ft 284 kts 26°
2026-04-23 13:37 45.39139 21.42126 11175 ft 283 kts 25°
2026-04-23 13:37 45.40881 21.43427 10787 ft 283 kts 25°
2026-04-23 13:37 45.42609 21.44719 10491 ft 279 kts 25°
2026-04-23 13:37 45.44326 21.46004 10115 ft 278 kts 25°
2026-04-23 13:38 45.46039 21.47290 9685 ft 277 kts 25°
2026-04-23 13:38 45.47747 21.48571 9280 ft 276 kts 25°
2026-04-23 13:38 45.49446 21.49848 8831 ft 276 kts 25°
2026-04-23 13:38 45.51138 21.51121 8414 ft 274 kts 25°
2026-04-23 13:39 45.52829 21.52391 7960 ft 273 kts 24°
2026-04-23 13:39 45.54477 21.53635 7526 ft 263 kts 24°
2026-04-23 13:39 45.56055 21.54832 7129 ft 252 kts 24°
2026-04-23 13:39 45.57593 21.55994 6742 ft 251 kts 24°
2026-04-23 13:40 45.59137 21.57156 6334 ft 251 kts 24°
2026-04-23 13:40 45.60668 21.58308 5911 ft 251 kts 24°
2026-04-23 13:40 45.62209 21.59468 5511 ft 250 kts 23°
2026-04-23 13:40 45.63776 21.60603 5102 ft 248 kts 18°
2026-04-23 13:41 45.65376 21.61441 4671 ft 248 kts 16°
2026-04-23 13:41 45.66996 21.62280 4292 ft 246 kts 16°
2026-04-23 13:41 45.68580 21.63102 4240 ft 232 kts 16°
2026-04-23 13:41 45.70035 21.63861 4168 ft 220 kts 15°
2026-04-23 13:42 45.71465 21.64333 4059 ft 203 kts 354°
2026-04-23 13:42 45.72764 21.63807 4000 ft 184 kts 327°
2026-04-23 13:42 45.73641 21.62589 3896 ft 174 kts 299°
2026-04-23 13:42 45.74085 21.60986 3807 ft 177 kts 291°
2026-04-23 13:43 45.74519 21.59317 3731 ft 177 kts 291°
2026-04-23 13:43 45.74943 21.57663 3536 ft 177 kts 291°
2026-04-23 13:43 45.75360 21.56024 3318 ft 177 kts 291°
2026-04-23 13:43 45.75781 21.54370 3084 ft 177 kts 290°
2026-04-23 13:44 45.76199 21.52721 2843 ft 175 kts 290°
2026-04-23 13:44 45.76603 21.51127 2600 ft 165 kts 290°
2026-04-23 13:44 45.76981 21.49637 2382 ft 154 kts 290°
2026-04-23 13:44 45.77335 21.48240 2169 ft 144 kts 290°
2026-04-23 13:45 45.77560 21.47348 2059 ft 138 kts 289°
2026-04-23 13:45 45.77987 21.45664 1823 ft 134 kts 289°
2026-04-23 13:45 45.78304 21.44413 1638 ft 134 kts 291°
2026-04-23 13:45 45.78620 21.43162 1455 ft 133 kts 291°
2026-04-23 13:46 45.78933 21.41923 1267 ft 132 kts 292°
2026-04-23 13:46 45.79249 21.40672 1082 ft 133 kts 291°
2026-04-23 13:46 45.79563 21.39426 909 ft 135 kts 291°
2026-04-23 13:46 45.79878 21.38179 745 ft 130 kts 290°
2026-04-23 13:47 45.80186 21.36958 573 ft 131 kts 290°
2026-04-23 13:47 45.80501 21.35702 382 ft 134 kts 291°
2026-04-23 13:47 45.80789 21.34564 336 ft 99 kts 289°
2026-04-23 13:47 45.80963 21.33864 346 ft 50 kts 289°
2026-04-23 13:48 45.81010 21.33640 345 ft 17 kts 265°
2026-04-23 13:48 45.80917 21.33542 346 ft 18 kts 200°
2026-04-23 13:48 45.80868 21.33401 342 ft 18 kts 286°
2026-04-23 13:48 45.80911 21.33229 348 ft 19 kts 289°
2026-04-23 13:49 45.80956 21.33051 347 ft 19 kts 290°
2026-04-23 13:49 45.81004 21.32865 347 ft 20 kts 289°
2026-04-23 13:49 45.81051 21.32670 342 ft 21 kts 289°
2026-04-23 13:49 45.81090 21.32510 345 ft 12 kts 285°
2026-04-23 13:50 45.81058 21.32402 342 ft 10 kts 247°
2026-04-23 13:50 45.81076 21.32304 347 ft 11 kts 291°
2026-04-23 13:50 45.81104 21.32192 350 ft 10 kts 289°
2026-04-23 13:50 45.81088 21.32149 342 ft 5 kts 207°
2026-04-23 13:51 45.81060 21.32136 349 ft 4 kts 199°
2026-04-23 13:51 45.81054 21.32132 342 ft 0 kts 199°